Cedar, IA

2:03 PM CST on February 19, 2017 (GMT -0600)
Oskaloosa Municipal

Weather History for KOOA - October, 2012

Change the Weather History Date:

Monday, October 1, 2012

  Actual Average (KOTM) Record (KOTM)
Temperature  
Mean Temperature 60 °F -  
Max Temperature 74 °F 72 °F 94 °F (1937)
Min Temperature 46 °F 50 °F 32 °F (1958)
Degree Days  
Heating Degree Days 6    
Growing Degree Days 10 (Base 50)    
Moisture  
Dew Point 41 °F    
Average Humidity 56    
Maximum Humidity 80    
Minimum Humidity 28    
Precipitation  
Precipitation 0.00 in - - ()
Sea Level Pressure  
Sea Level Pressure 29.87 in    
Wind  
Wind Speed 4 mph (ENE)    
Max Wind Speed 7 mph    
Max Gust Speed -    
Visibility 9 miles    
Events      
Averages and records for this station are not official NWS values.
T = Trace of Precipitation, MM = Missing Value Source: NWS Daily Summary

Daily Weather History Graph

Daily Weather History Graph

Search for Another Location

Airport or City:

Trip Planner

Search our weather history database for the weather conditions in past years. The results will help you decide how hot, cold, wet, or windy it might be!

Date:

Astronomy

Oct. 01, 2012 Rise Set
Actual Time 7:07 AM CDT 6:50 PM CDT
Civil Twilight 6:39 AM CDT 7:18 PM CDT
Nautical Twilight 6:07 AM CDT 7:50 PM CDT
Astronomical Twilight 5:35 AM CDT 8:22 PM CDT
Moon 7:26 PM CDT (10/1) 8:38 AM CDT (10/1)
Length of Visible Light 12h 38m
Length of Day
11h 43m
Full, 98% of the Moon is Illuminated
Oct 1
Full
Oct 8
Last Quarter
Oct 15
New
Oct 21
First Quarter
Oct 29
Full

Hourly Weather History & Observations

Time (CDT) Temp. Dew Point Humidity Pressure Visibility Wind Dir Wind Speed Gust Speed Precip Events Conditions
12:15 AM 54.5 °F 40.3 °F 59% 29.91 in 10.0 mi East 5.8 mph - N/A   Clear
12:35 AM 54.7 °F 40.6 °F 59% 29.90 in 10.0 mi East 5.8 mph - N/A   Clear
12:55 AM 54.1 °F 41.0 °F 61% 29.90 in 10.0 mi East 5.8 mph - N/A   Clear
1:15 AM 53.6 °F 41.4 °F 63% 29.90 in 10.0 mi East 5.8 mph - N/A   Clear
1:35 AM 53.6 °F 41.4 °F 63% 29.90 in 10.0 mi East 5.8 mph - N/A   Clear
1:55 AM 53.8 °F 41.5 °F 63% 29.90 in 10.0 mi East 4.6 mph - N/A   Clear
2:15 AM 53.6 °F 41.7 °F 64% 29.90 in 10.0 mi East 4.6 mph - N/A   Clear
2:35 AM 54.0 °F 41.9 °F 64% 29.89 in 10.0 mi East 5.8 mph - N/A   Clear
2:55 AM 53.1 °F 41.5 °F 65% 29.89 in 10.0 mi East 4.6 mph - N/A   Clear
3:15 AM 52.2 °F 41.7 °F 68% 29.89 in 10.0 mi East 4.6 mph - N/A   Clear
3:35 AM 51.8 °F 41.4 °F 68% 29.89 in 10.0 mi East 4.6 mph - N/A   Clear
3:55 AM 50.9 °F 41.4 °F 70% 29.89 in 10.0 mi East 4.6 mph - N/A   Clear
4:15 AM 50.9 °F 41.5 °F 70% 29.89 in 10.0 mi East 3.5 mph - N/A   Clear
4:35 AM 50.0 °F 41.4 °F 72% 29.89 in 10.0 mi East 4.6 mph - N/A   Clear
4:55 AM 49.6 °F 41.2 °F 73% 29.89 in 10.0 mi East 4.6 mph - N/A   Clear
5:15 AM 49.5 °F 41.4 °F 74% 29.89 in 10.0 mi East 3.5 mph - N/A   Clear
5:35 AM 47.8 °F 40.5 °F 76% 29.89 in 10.0 mi East 3.5 mph - N/A   Clear
5:55 AM 47.3 °F 40.5 °F 77% 29.89 in 10.0 mi ENE 4.6 mph - N/A   Clear
6:15 AM 47.3 °F 40.6 °F 78% 29.89 in 10.0 mi ENE 3.5 mph - N/A   Clear
6:35 AM 46.9 °F 40.8 °F 79% 29.89 in 10.0 mi ENE 3.5 mph - N/A   Clear
6:55 AM 47.3 °F 41.0 °F 79% 29.89 in 10.0 mi East 3.5 mph - N/A   Clear
7:15 AM 47.3 °F 41.4 °F 80% 29.90 in 10.0 mi East 3.5 mph - N/A   Clear
7:35 AM 46.8 °F 41.0 °F 80% 29.90 in 10.0 mi ENE 3.5 mph - N/A   Clear
7:55 AM 47.3 °F 41.4 °F 80% 29.90 in 10.0 mi East 3.5 mph - N/A   Clear
8:15 AM 47.8 °F 41.9 °F 80% 29.90 in 10.0 mi East 3.5 mph - N/A   Clear
8:35 AM 48.7 °F 42.1 °F 78% 29.90 in 10.0 mi Calm Calm - N/A   Clear
9:15 AM 52.2 °F 43.3 °F 72% 29.90 in 10.0 mi Calm Calm - N/A   Clear
9:35 AM 55.9 °F 43.5 °F 63% 29.91 in 10.0 mi Calm Calm - N/A   Clear
9:55 AM 59.5 °F 43.7 °F 56% 29.90 in 10.0 mi SE 3.5 mph - N/A   Clear
10:15 AM 61.0 °F 43.5 °F 53% 29.90 in 10.0 mi SE 4.6 mph - N/A   Clear
10:35 AM 61.9 °F 43.2 °F 50% 29.90 in 10.0 mi SE 3.5 mph - N/A   Clear
11:15 AM 64.4 °F 42.1 °F 44% 29.90 in 10.0 mi SE 3.5 mph - N/A   Clear
11:35 AM 65.7 °F 41.0 °F 41% 29.89 in 10.0 mi ESE 3.5 mph - N/A   Clear
11:55 AM 66.4 °F 40.6 °F 39% 29.89 in 10.0 mi Calm Calm - N/A   Clear
12:15 PM 67.5 °F 40.3 °F 37% 29.88 in 10.0 mi East 3.5 mph - N/A   Clear
12:35 PM 68.0 °F 41.2 °F 38% 29.88 in 10.0 mi Calm Calm - N/A   Clear
1:15 PM 69.4 °F 40.8 °F 35% 29.87 in 10.0 mi ESE 4.6 mph - N/A   Clear
1:35 PM 71.2 °F 40.3 °F 33% 29.86 in 10.0 mi Calm Calm - N/A   Clear
1:55 PM 71.6 °F 40.5 °F 32% 29.85 in 10.0 mi Calm Calm - N/A   Clear
2:15 PM 72.0 °F 39.9 °F 31% 29.85 in 10.0 mi East 5.8 mph - N/A   Clear
2:55 PM 72.7 °F 39.2 °F 30% 29.84 in 10.0 mi Calm Calm - N/A   Clear
3:15 PM 73.4 °F 39.0 °F 29% 29.84 in 10.0 mi Calm Calm - N/A   Clear
3:35 PM 73.9 °F 39.0 °F 28% 29.83 in 10.0 mi North 4.6 mph - N/A   Clear
4:15 PM 73.0 °F 39.6 °F 30% 29.83 in 10.0 mi East 3.5 mph - N/A   Clear
4:35 PM 73.4 °F 39.4 °F 29% 29.83 in 10.0 mi NNW 4.6 mph - N/A   Clear
4:55 PM 73.4 °F 39.7 °F 30% 29.82 in 10.0 mi North 4.6 mph - N/A   Clear
5:15 PM 72.9 °F 39.7 °F 30% 29.82 in 10.0 mi NNW 4.6 mph - N/A   Clear
5:35 PM 72.1 °F 40.1 °F 31% 29.82 in 10.0 mi NNE 3.5 mph - N/A   Clear
6:15 PM 70.7 °F 40.6 °F 34% 29.83 in 10.0 mi Calm Calm - N/A   Clear
6:35 PM 68.9 °F 42.6 °F 39% 29.83 in 7.0 mi North 3.5 mph - N/A   Clear
6:55 PM 66.9 °F 42.8 °F 42% 29.83 in 7.0 mi North 3.5 mph - N/A   Clear
7:15 PM 64.4 °F 42.8 °F 45% 29.83 in 5.0 mi North 3.5 mph - N/A   Haze
7:35 PM 63.3 °F 42.1 °F 46% 29.83 in 7.0 mi ESE 4.6 mph - N/A   Clear
7:55 PM 60.4 °F 41.7 °F 50% 29.84 in 7.0 mi Calm Calm - N/A   Clear
8:15 PM 56.5 °F 40.6 °F 55% 29.85 in 7.0 mi Calm Calm - N/A   Clear
8:35 PM 55.4 °F 40.8 °F 58% 29.85 in 7.0 mi Calm Calm - N/A   Clear
8:55 PM 57.0 °F 41.0 °F 55% 29.85 in 7.0 mi Calm Calm - N/A   Clear
9:15 PM 55.4 °F 40.8 °F 58% 29.86 in 7.0 mi WNW 6.9 mph - N/A   Clear
9:35 PM 55.6 °F 41.5 °F 59% 29.86 in 7.0 mi Calm Calm - N/A   Clear
9:55 PM 53.1 °F 41.2 °F 64% 29.86 in 5.0 mi NNW 4.6 mph - N/A   Haze
10:15 PM 56.7 °F 43.2 °F 61% 29.87 in 7.0 mi North 5.8 mph - N/A   Clear
10:35 PM 56.5 °F 43.7 °F 62% 29.87 in 10.0 mi North 6.9 mph - N/A   Clear
10:55 PM 56.8 °F 43.7 °F 61% 29.86 in 10.0 mi North 6.9 mph - N/A   Clear
11:15 PM 56.3 °F 43.7 °F 63% 29.86 in 10.0 mi North 5.8 mph - N/A   Clear
11:35 PM 55.6 °F 43.9 °F 65% 29.86 in 10.0 mi North 4.6 mph - N/A   Clear
11:55 PM 54.0 °F 43.7 °F 68% 29.86 in 10.0 mi NNW 3.5 mph - N/A   Clear